Temperature
15 15 15 15 15 15 15 15 15 16 16 16 15 15 15 15 15 15 15 15 15 15 15 15 15 15 16 16 16 15 15 16 16 16 16 15 15 15 15 15 15 15 15
15 15 15 15 15 15 15 15 15 15 15 15 15 15 15 15 15 15 15 15 15 15 15 15 15 15 15 15 15 15 15 15 15 15 15 15 15 15 15 15 15 15 15
15 15 15 15 15 15 15 15 15 15 15 15 15 15 15 15 15 15 15 15 15 15 15 15 15 15 15 15 15 15 15 15 15 15 15 15 15 15 15 15 15 15 15
15 15 15 15 14 14 15 14 14 15 15 15 15 15 15 15 15 15 15 15 15 15 15 15 15 15 15 15 15 15 15 15 15 15 15 15 15 14 14 14 14 14 14
15 15 15 14 14 14 14 14 14 14 14 14 15 14 14 15 14 14 15 14 14 14 14 14 15 15 15 15 15 15 15 15 15 14 14 14 14 14 14 14 14 14 14
15 15 14 14 14 14 14 14 14 14 14 14 14 14 14 14 14 14 14 14 14 14 14 14 14 14 14 14 14 14 14 14 14 14 14 14 14 14 14 14 14 14 14
15 14 14 14 14 14 14 14 14 14 14 14 14 14 14 14 14 14 14 14 14 14 14 14 14 14 14 14 14 14 14 14 14 14 14 14 14 14 14 14 14 13 13
14 14 14 14 14 14 14 14 14 14 14 14 14 14 14 14 14 14 14 14 14 14 14 14 14 14 14 14 14 14 14 14 13 14 13 13 13 13 13 13 13 13 13
14 14 14 14 14 14 14 14 14 13 13 13 14 14 14 14 14 14 14 14 14 14 13 13 13 13 13 13 14 14 14 13 13 13 13 13 13 13 13 13 13 13 13
14 14 14 14 14 14 14 13 13 13 13 13 13 13 14 14 13 13 14 14 14 13 13 13 13 13 13 13 13 13 13 13 13 13 13 13 13 13 13 13 13 13 13
14 14 14 14 13 13 13 13 13 13 13 13 13 13 13 14 14 13 13 13 13 13 13 13 13 13 13 13 13 13 13 13 13 13 13 13 13 13 13 12 13 12 12
13 13 13 13 13 13 13 13 13 13 13 13 13 13 13 13 13 13 13 13 13 13 13 13 13 13 13 13 13 13 13 13 13 13 13 13 13 13 12 12 12 12 12
13 13 13 13 13 13 13 13 13 13 13 13 13 13 13 13 13 13 13 13 13 13 13 13 13 13 12 12 13 12 12 12 12 13 13 13 12 12 12 12 12 12 12
13 13 13 13 13 13 13 13 13 12 12 12 12 12 12 13 13 13 13 13 13 12 12 12 12 12 12 12 12 12 12 12 12 12 12 12 12 12 12 12 12 12 12
12 12 12 12 13 12 12 12 12 12 12 12 12 12 12 12 12 13 12 12 12 12 12 12 12 12 12 12 12 12 12 12 12 12 12 12 12 12 12 12 12 12 11
12 12 12 12 12 12 12 12 12 12 12 12 12 12 12 12 12 12 12 12 12 12 12 12 12 12 12 12 12 12 12 12 12 12 12 12 12 12 12 12 12 11 11
12 12 12 12 12 12 12 12 12 12 12 12 12 11 11 11 12 12 12 12 12 12 12 11 11 11 11 11 11 11 11 11 12 11 11 11 11 11 11 11 11 11 11
12 12 12 12 12 12 12 12 11 11 11 11 11 11 11 11 11 11 11 11 12 11 11 11 11 11 11 11 11 11 11 11 11 11 11 11 11 11 11 11 11 11 11
11 11 11 11 12 11 11 11 11 11 11 11 11 11 11 11 11 11 11 11 11 11 11 11 11 11 11 11 11 11 11 11 11 11 11 11 11 11 11 11 11 10 10
11 11 11 11 11 11 11 11 11 11 11 11 11 11 11 11 11 11 11 11 11 11 11 10 10 10 10 10 10 10 10 10 10 10 11 10 10 10 11 10 10 10 10
11 11 11 11 11 11 11 11 10 10 10 10 10 10 11 10 11 10 10 10 10 10 10 10 10 10 10 10 10 10 10 10 10 10 10 10 10 10 10 10 10 10 10
10 10 10 10 10 10 10 10 10 10 10 10 10 10 10 10 10 10 10 10 10 10 10 10 10 10 10 10 10 10 10 10 10 10 10 10 10 10 10 10 10 10 10
10 10 10 10 10 10 10 10 10 10 10 10 10 10 10 10 10 10 10 10 10 10 10 10 10 10 10 10 10 9 9 9 10 10 9 10 10 10 10 10 10 10 10
9 9 10 10 10 10 10 10 10 10 10 10 9 9 9 9 10 10 10 9 10 9 9 9 9 10 10 10 9 9 9 9 9 9 9 9 9 9 10 10 10 10 9
9 9 9 9 9 9 9 9 9 9 9 9 9 9 9 9 9 9 9 9 9 9 9 9 9 9 9 9 9 9 9 8 9 9 9 9 9 9 9 9 9 9 9
9 9 8 9 9 9 9 9 9 9 9 9 9 9 9 9 9 9 9 9 9 9 9 9 9 9 9 9 9 8 8 8 8 8 9 9 9 9 9 9 9 9 9
Wind_Speed
2 2 3 3 3 3 2 2 3 4 4 5 6 6 6 7 8 9 9 11 11 11 10 9 9 8 8 9 9 9 9 9 9 9 10 11 11 11 11 11 11 11 11
2 2 3 2 3 3 3 2 3 3 3 4 5 5 5 6 7 8 9 9 10 10 10 10 9 8 8 9 9 10 10 11 11 11 11 11 11 11 11 11 11 11 11
4 3 3 2 2 3 3 3 3 3 3 3 3 4 4 5 5 6 7 7 8 8 9 9 9 8 8 8 8 9 10 10 11 11 11 12 11 11 11 11 11 11 11
5 4 2 2 3 3 3 2 2 3 3 3 3 2 3 3 4 5 5 6 6 6 7 8 9 8 8 8 8 8 9 10 10 11 11 11 11 11 11 11 11 11 11
5 5 2 2 3 2 2 2 3 2 2 2 2 2 2 3 3 4 4 5 5 6 6 7 8 8 8 8 8 8 8 9 10 10 11 11 11 11 11 11 11 10 10
5 5 2 2 2 2 2 2 2 2 1 1 2 2 2 2 2 2 2 3 4 5 5 6 6 7 9 8 7 7 8 8 8 10 11 11 11 11 11 10 10 10 10
4 4 2 2 2 2 2 2 2 2 1 2 2 2 2 1 1 1 2 2 3 4 5 5 5 6 7 8 7 7 7 8 8 9 10 11 11 11 11 10 10 10 10
4 3 2 2 2 2 2 2 1 1 0 1 1 1 1 1 2 1 1 2 2 3 3 5 5 7 8 7 7 8 7 8 8 9 10 10 11 11 10 10 9 10 10
5 5 3 2 2 1 1 1 1 1 0 1 1 1 1 1 1 1 1 2 2 2 2 4 6 7 8 8 7 7 7 7 7 8 9 10 10 10 9 9 8 9 9
4 5 4 3 2 1 2 1 1 0 0 0 1 1 0 1 1 0 1 1 1 2 2 3 5 6 7 9 9 8 7 7 7 7 8 8 8 8 8 8 7 7 7
3 4 3 2 2 1 1 1 1 0 0 0 0 0 1 1 0 1 0 1 1 2 2 3 3 5 7 8 8 8 9 8 7 6 6 6 7 7 7 7 7 7 7
1 2 2 1 1 1 1 1 1 1 0 0 0 0 0 0 0 1 1 0 1 1 2 2 3 4 6 7 7 8 8 8 7 6 6 6 6 6 6 6 6 6 6
1 0 1 0 0 0 0 0 0 0 0 1 0 0 0 0 0 1 1 0 0 0 1 2 2 4 5 7 7 8 7 8 7 6 6 6 5 5 5 5 5 5 5
1 1 1 1 0 0 0 0 0 0 1 0 0 0 0 0 1 1 1 1 0 0 1 1 1 3 4 6 7 7 6 7 6 5 5 5 5 4 4 4 4 4 5
1 0 1 0 0 0 0 0 0 0 1 0 0 0 0 0 0 0 1 2 2 1 1 1 1 1 3 4 6 5 6 6 6 6 6 6 5 4 4 4 4 4 4
0 0 1 1 1 1 1 1 1 1 1 1 0 0 0 0 0 0 0 0 1 2 1 0 0 1 2 2 4 4 5 7 7 7 6 6 6 5 4 4 4 4 4
0 0 1 1 1 1 1 1 1 1 2 2 1 1 1 0 0 1 0 0 1 1 1 0 0 1 2 2 3 3 5 6 6 7 8 7 6 5 5 4 4 4 4
1 1 1 1 1 1 1 1 2 1 2 2 2 1 1 1 0 1 0 1 1 1 2 2 1 1 1 2 3 2 3 5 5 6 8 7 6 6 5 4 4 4 3
1 1 1 1 1 0 0 1 1 2 1 2 2 2 2 2 2 1 1 1 1 1 2 2 2 1 1 1 2 1 1 2 4 5 7 7 6 6 5 4 4 4 4
1 1 1 1 1 1 0 1 2 2 2 2 2 2 2 2 2 2 2 2 1 2 2 2 2 1 1 1 2 2 1 0 1 3 4 5 6 6 6 6 5 5 5
2 1 2 2 0 0 1 1 1 2 2 2 2 2 2 2 1 1 1 2 2 2 2 2 2 1 1 2 2 2 2 1 1 2 2 3 4 5 6 7 7 7 6
2 1 1 1 1 1 1 2 2 2 2 2 2 2 2 2 1 0 1 1 2 3 3 3 3 3 3 3 2 2 2 2 1 2 2 2 3 3 5 6 7 7 8
2 1 1 1 1 0 1 2 3 2 2 2 2 1 1 1 1 1 1 2 2 2 3 3 4 5 4 4 4 3 3 3 3 3 2 3 3 3 5 7 8 9 9
2 2 1 1 1 1 2 3 3 2 2 2 1 1 1 0 1 1 1 1 2 2 3 3 3 5 5 5 6 5 4 3 2 2 3 2 2 3 4 7 10 11 11
2 2 2 1 1 1 1 2 2 1 2 2 2 1 0 0 2 2 1 2 3 3 3 3 3 3 4 5 5 3 2 2 2 3 2 2 2 2 2 3 8 10 11
2 2 2 1 1 0 1 2 1 1 1 2 2 1 2 2 2 2 1 2 3 3 2 2 2 2 2 4 5 4 4 3 2 2 3 3 2 1 1 2 3 6 8
Wind_Direction
85 88 85 80 83 82 71 44 42 45 41 43 56 61 65 76 87 87 83 78 73 70 67 67 67 69 70 70 72 75 74 73 81 93 101 105 105 104 104 102 100 99 97
81 83 81 76 75 73 70 59 64 57 46 41 38 48 58 69 86 99 99 86 80 75 70 67 65 68 71 73 74 77 76 74 80 90 97 101 103 104 104 103 101 100 99
83 76 74 75 78 75 72 62 66 65 58 54 45 42 50 60 70 85 102 105 94 82 76 71 64 67 70 74 78 82 81 80 81 87 94 97 100 101 102 101 101 101 99
86 83 79 66 69 67 72 69 64 64 54 50 42 38 45 57 56 69 84 97 102 94 87 78 71 70 70 73 77 82 84 87 87 89 92 96 98 98 99 100 99 98 98
81 79 80 67 62 69 68 68 64 69 65 60 54 57 52 50 44 57 59 73 88 98 106 99 85 79 76 75 75 81 87 91 93 94 95 97 100 99 98 98 97 97 96
70 81 94 82 65 71 67 68 68 67 76 84 73 70 63 66 43 45 50 65 76 95 99 107 109 92 81 77 75 78 88 93 97 98 97 98 99 96 96 97 97 96 96
73 76 75 81 71 68 80 84 84 70 55 64 69 51 37 47 68 63 53 61 54 68 88 91 103 114 99 79 72 76 85 91 96 99 102 103 101 100 97 94 97 95 95
60 80 87 89 101 96 83 69 83 82 59 70 106 115 49 2 8 46 80 79 51 59 75 93 91 98 102 96 83 81 81 91 100 102 105 106 102 103 101 96 98 97 94
49 55 57 79 108 99 99 93 70 107 185 331 59 120 130 182 329 346 53 74 61 56 53 71 77 85 94 99 93 89 89 93 98 101 103 104 105 104 101 99 99 98 96
45 49 47 57 74 88 96 89 76 49 136 299 330 346 173 167 154 330 341 35 72 75 73 69 65 81 86 95 97 100 104 100 99 103 103 102 107 109 106 103 101 103 100
48 43 44 51 56 51 68 95 85 7 139 196 223 330 341 329 176 156 214 340 31 39 64 82 80 79 89 94 100 103 106 101 99 105 104 104 105 112 112 107 102 104 101
59 47 39 36 42 62 38 43 56 55 239 260 229 183 146 77 312 128 170 165 103 37 51 70 87 88 90 92 102 112 113 107 102 106 106 104 103 109 114 110 106 107 102
5 321 34 328 334 28 80 49 18 279 324 41 32 345 55 92 76 86 128 162 134 98 71 65 87 103 106 105 110 123 123 118 108 105 107 109 106 110 111 109 108 111 109
237 238 231 271 330 326 24 120 56 6 21 64 49 26 356 348 63 97 139 129 86 29 80 110 70 90 105 124 132 136 135 133 126 125 123 119 111 110 111 111 118 118 111
271 189 184 205 308 288 209 203 213 220 329 24 187 207 329 254 131 274 141 148 151 160 220 144 86 83 94 109 135 144 142 152 151 147 139 131 125 118 112 115 111 111 108
238 264 244 228 226 229 202 211 224 232 206 181 161 128 236 259 236 249 200 184 157 169 190 64 67 125 112 116 126 135 149 155 158 160 157 147 141 132 123 120 115 111 109
355 234 240 282 248 226 205 218 220 230 232 207 201 200 199 196 224 248 249 180 144 136 169 218 41 109 95 105 118 132 139 143 151 165 165 162 158 155 150 138 130 126 127
290 276 256 235 247 239 213 215 233 240 246 227 214 213 201 189 187 268 246 214 184 177 162 174 183 120 114 147 133 151 145 149 151 166 171 168 164 165 165 159 155 151 149
282 292 304 284 282 259 266 267 250 247 238 245 232 216 198 176 195 219 223 208 199 176 151 162 176 149 128 139 127 129 122 138 161 172 175 178 181 178 173 172 175 177 176
347 344 339 306 320 342 349 300 278 262 255 250 245 226 206 187 197 204 210 203 179 153 154 155 165 157 163 167 135 143 139 143 195 171 166 183 195 198 197 195 195 193 194
344 346 336 319 303 237 352 359 296 275 257 257 255 239 216 193 206 212 222 193 170 167 167 173 178 173 178 167 190 196 184 190 218 157 146 188 189 197 208 210 212 211 214
341 324 329 348 20 13 14 13 341 287 253 249 256 246 235 197 212 212 245 223 183 181 187 188 199 194 202 193 186 192 183 170 235 216 178 225 189 199 205 207 219 221 221
334 341 331 359 352 359 24 12 347 312 276 269 249 247 274 300 96 154 229 238 243 231 202 194 207 208 197 192 186 200 207 203 221 211 177 226 211 211 208 216 217 217 217
318 323 307 323 327 10 43 19 345 311 289 287 291 248 170 61 357 10 213 225 243 243 228 212 214 221 207 190 186 195 208 216 224 206 160 209 224 223 217 215 217 215 216
314 318 309 318 339 12 50 20 11 301 309 313 311 318 42 153 324 338 227 232 240 251 257 244 226 225 201 177 175 174 188 186 227 235 198 179 229 240 228 221 216 215 221
307 307 311 312 265 139 35 9 6 289 312 318 318 327 355 338 317 308 228 231 239 243 242 248 242 231 201 183 185 187 187 196 208 228 213 183 214 186 254 239 201 211 221
Height
1526 1526 1526 1527 1527 1527 1527 1528 1528 1529 1529 1529 1530 1530 1530 1531 1530 1530 1530 1530 1530 1529 1529 1528 1528 1527 1527 1526 1525 1524 1523 1521 1518 1516 1516 1519 1523 1526 1528 1530 1531 1533 1534
1527 1527 1527 1527 1527 1528 1528 1528 1529 1529 1529 1530 1530 1531 1531 1531 1531 1531 1531 1531 1530 1530 1530 1529 1529 1528 1528 1527 1526 1525 1524 1523 1521 1520 1520 1522 1525 1527 1529 1531 1532 1534 1535
1527 1527 1527 1528 1528 1528 1528 1529 1529 1529 1530 1530 1531 1531 1532 1532 1532 1532 1532 1532 1531 1531 1531 1530 1530 1530 1529 1528 1528 1527 1526 1525 1524 1524 1524 1526 1527 1529 1530 1532 1534 1535 1536
1527 1527 1527 1528 1528 1528 1529 1529 1529 1530 1530 1531 1531 1531 1532 1532 1533 1533 1533 1532 1532 1531 1531 1531 1531 1530 1530 1530 1529 1529 1528 1528 1527 1527 1527 1528 1529 1531 1532 1533 1535 1536 1537
1527 1527 1528 1528 1528 1528 1529 1529 1529 1530 1530 1531 1531 1532 1532 1532 1533 1533 1533 1533 1533 1532 1532 1532 1531 1531 1531 1530 1530 1530 1530 1530 1529 1529 1530 1531 1532 1533 1534 1535 1536 1537 1537
1527 1527 1527 1528 1528 1528 1529 1529 1530 1530 1530 1531 1531 1532 1532 1533 1533 1533 1533 1533 1533 1533 1532 1532 1531 1531 1531 1531 1531 1531 1531 1531 1531 1531 1532 1532 1534 1535 1535 1536 1537 1537 1538
1527 1527 1527 1528 1528 1528 1529 1529 1529 1530 1530 1531 1531 1532 1532 1533 1533 1533 1533 1534 1533 1533 1533 1532 1532 1532 1532 1532 1532 1532 1532 1532 1532 1532 1533 1534 1535 1536 1536 1537 1538 1538 1539
1527 1527 1527 1527 1527 1528 1528 1528 1529 1529 1530 1531 1531 1532 1532 1534 1533 1533 1533 1533 1533 1533 1533 1533 1532 1532 1532 1532 1532 1532 1533 1533 1533 1534 1534 1535 1536 1536 1537 1538 1538 1539 1539
1526 1526 1526 1527 1527 1527 1528 1528 1528 1529 1529 1530 1531 1532 1532 1532 1533 1534 1533 1533 1533 1533 1533 1533 1533 1533 1533 1532 1533 1533 1533 1534 1534 1535 1535 1536 1537 1537 1538 1538 1539 1539 1539
1525 1525 1526 1526 1526 1526 1527 1527 1527 1528 1529 1529 1530 1531 1532 1532 1533 1533 1533 1533 1533 1533 1533 1533 1533 1533 1533 1533 1533 1533 1533 1534 1535 1535 1536 1536 1537 1538 1538 1538 1539 1539 1539
1524 1524 1525 1525 1525 1526 1526 1526 1527 1527 1528 1528 1529 1530 1531 1532 1532 1532 1532 1533 1533 1533 1533 1533 1533 1533 1533 1533 1533 1533 1533 1534 1534 1535 1536 1536 1537 1538 1538 1538 1538 1538 1539
1523 1523 1524 1524 1525 1525 1525 1525 1526 1526 1527 1528 1528 1529 1530 1530 1531 1531 1532 1532 1532 1532 1532 1532 1532 1532 1532 1532 1532 1533 1533 1534 1534 1535 1535 1536 1537 1537 1537 1537 1538 1538 1538
1522 1522 1522 1523 1523 1524 1524 1524 1525 1525 1526 1527 1527 1528 1528 1529 1530 1530 1531 1531 1531 1532 1532 1532 1532 1532 1532 1532 1532 1533 1533 1533 1534 1534 1535 1536 1536 1537 1537 1537 1537 1538 1538
1520 1521 1521 1521 1522 1522 1523 1523 1523 1524 1525 1525 1526 1526 1527 1527 1528 1529 1529 1530 1530 1531 1531 1531 1532 1532 1531 1531 1532 1532 1532 1533 1533 1534 1535 1535 1536 1536 1537 1537 1537 1537 1537
1519 1519 1519 1520 1520 1520 1521 1521 1522 1522 1523 1524 1524 1524 1525 1526 1526 1527 1528 1529 1529 1529 1530 1531 1531 1531 1531 1531 1531 1531 1531 1532 1533 1533 1534 1534 1535 1535 1536 1536 1536 1536 1536
1517 1517 1517 1517 1518 1518 1519 1519 1520 1520 1521 1522 1522 1523 1523 1524 1525 1525 1526 1527 1528 1528 1528 1529 1529 1530 1530 1530 1530 1530 1531 1531 1532 1532 1533 1534 1534 1534 1534 1535 1535 1535 1535
1515 1515 1515 1515 1516 1516 1516 1517 1517 1518 1519 1520 1520 1521 1522 1522 1523 1523 1524 1525 1525 1526 1526 1527 1527 1528 1528 1528 1529 1529 1530 1530 1530 1531 1532 1532 1533 1533 1533 1534 1534 1534 1534
1513 1513 1513 1513 1514 1514 1514 1515 1515 1516 1517 1518 1518 1519 1519 1520 1521 1521 1522 1522 1523 1524 1524 1524 1525 1526 1526 1527 1527 1527 1528 1528 1529 1530 1530 1531 1531 1532 1532 1532 1532 1533 1533
1511 1511 1511 1511 1511 1511 1511 1512 1513 1513 1514 1515 1516 1517 1517 1518 1518 1519 1519 1520 1521 1521 1522 1522 1523 1524 1525 1525 1525 1526 1526 1527 1527 1528 1529 1529 1530 1530 1531 1531 1531 1531 1531
1508 1508 1508 1508 1509 1509 1509 1509 1510 1511 1511 1512 1513 1514 1515 1515 1516 1516 1517 1517 1518 1519 1519 1520 1520 1521 1522 1523 1523 1523 1524 1525 1525 1526 1527 1527 1528 1529 1529 1529 1530 1530 1530
1506 1506 1506 1506 1506 1506 1506 1507 1507 1508 1509 1509 1510 1511 1511 1512 1513 1514 1514 1515 1515 1516 1516 1517 1518 1519 1520 1520 1521 1521 1522 1523 1523 1524 1524 1525 1526 1526 1527 1527 1528 1528 1528
1503 1503 1503 1503 1503 1503 1504 1504 1505 1505 1506 1506 1507 1508 1509 1509 1510 1510 1511 1512 1513 1513 1513 1514 1515 1516 1517 1517 1518 1519 1520 1520 1520 1522 1522 1523 1524 1524 1524 1525 1525 1525 1525
1500 1499 1501 1501 1501 1501 1501 1502 1502 1503 1503 1504 1504 1505 1506 1506 1506 1507 1508 1508 1509 1510 1511 1512 1512 1512 1513 1514 1515 1516 1517 1517 1518 1519 1520 1520 1521 1521 1522 1522 1522 1522 1523
1498 1498 1498 1498 1498 1498 1498 1499 1499 1500 1500 1500 1501 1501 1502 1502 1502 1503 1504 1504 1505 1506 1507 1508 1509 1509 1510 1511 1512 1513 1514 1515 1516 1517 1517 1517 1518 1518 1519 1519 1519 1519 1519
1496 1495 1495 1495 1495 1495 1495 1496 1496 1496 1496 1497 1497 1498 1499 1499 1499 1500 1500 1500 1501 1502 1503 1504 1505 1506 1507 1508 1509 1510 1511 1511 1511 1512 1514 1514 1514 1515 1515 1515 1516 1516 1516
1493 1493 1493 1493 1492 1492 1492 1493 1493 1493 1493 1493 1494 1495 1495 1495 1495 1496 1496 1496 1497 1497 1499 1500 1501 1503 1503 1505 1505 1506 1507 1508 1508 1509 1510 1511 1511 1512 1512 1512 1512 1513 1513